www.pogodaiklimat.ru

Погода и климат >> Архив погоды >> Канада >> Arviat Airport


ПОГОДА в Arviat Airport

  • Прогноз погоды в Arviat Airport
  • Монитор погоды в Arviat Airport
  • Климат города

АРХИВ ПОГОДЫ в Arviat Airport

Время (UTC), дата Ветер
(напр.,м/с)
 
Видим.   Явления Облачность Т
(С)
Тd
(С)
f
(%)
Тe
(С)
Тes
(С)
Комфортность P
(гПа)
Po
(гПа)
Тmin
(С)
Tmax
(С)
R
(мм)
R24
(мм)
S
(см)
15 11.11 С 8 14 км слаб. снег 10/10 600 м
[]
-18.3 -20.4 84 -30 -30 1018.7 1017.3
18 11.11 С 8 16 км слаб. снег 9/9 1000 м
[]
-16.8 -19.0 83 -28 -28 1020.0 1018.6 -18.8 -15.1
21 11.11 С 9 16 км слаб. снег 5/5 1000 м
[]
-15.6 -17.7 84 -27 -27 1021.2 1019.8
00 12.11 СЗ 8 16 км слаб. снег ясно -16.4 -18.4 84 -28 -28 1022.8 1021.4 -18.8 -15.6
03 12.11 СЗ 7 16 км слаб. снег 5/5 1500 м
[]
-17.5 -19.5 84 -29 -29 1022.9 1021.5
06 12.11 СЗ 7 16 км ясно -18.7 -20.8 83 -30 -30 1023.2 1021.8 -18.8 -15.1 201
09 12.11 СЗ 8 16 км слаб. снег 9/9 1000 м
[]
-19.0 -21.2 83 -31 -31 опасность
обморожения
1023.5 1022.1
12 12.11 СЗ 8 16 км ясно -20.9 -23.1 82 -33 -33 опасность
обморожения
1023.3 1021.9 -21.0 -15.1
15 12.11 СЗ 8 12 км ясно -21.2 -23.7 80 -34 -34 опасность
обморожения
1023.4 1022.0
18 12.11 СЗ 10 16 км ясно -21.1 -23.7 80 -35 -35 опасность
обморожения
1023.7 1022.3 -21.6 -18.3
21 12.11 СЗ 8 16 км ясно -21.3 -24.0 79 -34 -34 опасность
обморожения
1023.6 1022.2
00 13.11 СЗ 8 16 км ясно -18.5 -20.5 84 -31 -31 опасность
обморожения
1023.6 1022.2 -21.6 -18.4
03 13.11 СЗ 7 16 км ясно -20.3 -22.3 84 -32 -32 опасность
обморожения
1023.0 1021.6
06 13.11 С 6 16 км ясно -21.2 -23.2 84 -32 -32 опасность
обморожения
1022.8 1021.4 -21.6 -18.0 171
09 13.11 СЗ 9 16 км ясно -21.7 -24.0 82 -35 -35 опасность
обморожения
1023.0 1021.6
12 13.11 СЗ 10 9000 м дымка 10/10 600 м
[]
-21.8 -24.2 81 -36 -36 опасность
обморожения
1022.6 1021.2 -22.9 -18.0
15 13.11 С 9 16 км 3/3 1000 м
[]
-22.3 -24.9 79 -36 -36 опасность
обморожения
1022.7 1021.3
18 13.11 С 11 16 км ясно -21.1 -23.7 80 -36 -36 опасность
обморожения
1023.6 1022.2 -22.9 -19.7
21 13.11 СЗ 10 16 км ясно -20.7 -23.2 80 -34 -34 опасность
обморожения
1024.1 1022.7
00 14.11 СЗ 10 12 км ясно -21.4 -23.8 81 -35 -35 опасность
обморожения
1024.5 1023.1 -22.9 -20.5
03 14.11 СЗ 11 9000 м дым ясно -22.2 -24.8 79 -37 -37 опасность
обморожения
1023.9 1022.5
06 14.11 С 9 16 км ясно -23.6 -26.3 78 -38 -38 опасность
обморожения
1024.3 1022.9 -23.7 -19.7 171
09 14.11 СЗ 7 16 км ясно -24.1 -26.5 80 -37 -37 опасность
обморожения
1024.6 1023.2
12 14.11 СЗ 6 16 км ясно -24.9 -27.3 80 -37 -37 опасность
обморожения
1024.0 1022.6 -25.0 -19.7
15 14.11 С 4 16 км ясно -25.7 -28.3 79 -36 -36 опасность
обморожения
1023.5 1022.1
18 14.11 С 5 16 км 10/10 600 м
[]
-21.9 -24.1 82 -33 -33 опасность
обморожения
1022.9 1021.5 -26.2 -21.9
21 14.11 С 4 16 км 10/10 600 м
[]
-21.4 -23.4 84 -30 -30 1022.3 1020.9
00 15.11 С 6 16 км 10/10 300 м
[]
-21.0 -23.0 84 -32 -32 опасность
обморожения
1022.4 1021.0 -26.2 -21.0
03 15.11 С 7 16 км ясно -25.3 -28.0 78 -39 -39 опасность
обморожения
1022.7 1021.3
06 15.11 С 8 16 км ясно -27.3 -30.2 76 -42 -42 опасность
обморожения
1023.7 1022.3 -28.0 -20.6 71
09 15.11 С 8 16 км ясно -27.4 -30.3 76 -42 -42 опасность
обморожения
1024.9 1023.5
12 15.11 С 9 16 км ясно -27.7 -30.6 76 -43 -43 опасность
обморожения
1025.6 1024.2 -28.8 -20.6
15 15.11 0 н/о н/о -27.2 -30.1 76 1026.9 1025.4
18 15.11 СЗ 10 16 км ясно -26.2 -29.1 76 -42 -42 опасность
обморожения
1027.1 1025.6 -28.8 -26.2
21 15.11 СЗ 9 16 км ясно -25.9 -29.0 75 -41 -41 опасность
обморожения
1027.2 1025.7
00 16.11 СЗ 7 16 км ясно -26.5 -29.6 75 -40 -40 опасность
обморожения
1028.0 1026.5 -28.8 -25.7
03 16.11 СЗ 8 16 км ясно -26.3 -29.5 74 -41 -41 опасность
обморожения
1027.3 1025.8
06 16.11 СЗ 7 16 км ясно -25.4 -28.5 75 -38 -38 опасность
обморожения
1027.3 1025.8 -28.8 -25.4 201
09 16.11 СЗ 4 16 км ясно -27.1 -30.1 76 -38 -38 опасность
обморожения
1026.7 1025.2
12 16.11 СЗ 4 16 км ясно -27.4 -30.4 76 -38 -38 опасность
обморожения
1026.2 1024.7 -28.2 -25.4
15 16.11 СЗ 6 16 км ясно -27.3 -30.3 76 -40 -40 опасность
обморожения
1025.0 1023.5
18 16.11 СЗ 5 16 км ясно -24.9 -28.1 75 -36 -35 опасность
обморожения
1023.8 1022.4 -28.4 -24.9
21 16.11 З 3 16 км ясно -24.6 -27.7 75 -33 -33 опасность
обморожения
1022.7 1021.2
00 17.11 СЗ 5 16 км ясно -28.0 -30.7 78 -40 -40 опасность
обморожения
1022.2 1020.7 -28.4 -24.4
03 17.11 С 5 16 км ясно -28.7 -31.7 75 -41 -41 опасность
обморожения
1020.4 1018.9
06 17.11 СЗ 4 16 км ясно -29.9 -32.9 75 -41 -41 опасность
обморожения
1018.8 1017.3 -30.2 -24.4 7
09 17.11 СЗ 4 16 км ясно -29.2 -32.2 75 -40 -40 опасность
обморожения
1017.6 1016.2
12 17.11 СЗ 2 16 км 9/0 2000 м
[]
-28.4 -31.3 76 -34 -34 опасность
обморожения
1016.2 1014.7 -30.5 -24.4
15 17.11 СЗ 2 12 км слаб. снег 9/9 1000 м
[]
-26.0 -28.8 77 -33 -33 опасность
обморожения
1014.8 1013.4
18 17.11 СЗ 4 12 км слаб. снег 9/9 1000 м
[]
-24.3 -27.0 78 -34 -34 опасность
обморожения
1014.6 1013.2 -30.5 -24.3
21 17.11 СЗ 5 16 км ясно -24.7 -27.5 77 -35 -35 опасность
обморожения
1015.1 1013.7
00 18.11 С 7 16 км ясно -27.5 -30.5 75 -42 -42 опасность
обморожения
1015.8 1014.4 -30.5 -23.8
03 18.11 СЗ 8 16 км ясно -28.2 -31.4 74 -43 -43 опасность
обморожения
1016.4 1015.0
06 18.11 СЗ 9 16 км ясно -28.6 -31.7 75 -45 -45 опасность
обморожения
1017.1 1015.7 -30.5 -23.8 61
09 18.11 СЗ 9 16 км ясно -28.0 -31.3 73 -43 -43 опасность
обморожения
1018.1 1016.7

 

Местоположение метеостанции Arviat Airport (Канада): широта 61.09 долгота -94.07 высота над уровнем моря 10 м.

В архиве по умолчанию представлена погода в Arviat Airport за последнюю неделю. Архивные данные за месяц целиком и за предыдущие месяцы, начиная с января 2011 года, Вы можете получить, выбрав интересующий диапазон дат из раскрывающегося списка и нажав кнопку "Ввод!".


*Определитесь, кто Вы:
робот инопланетянин человек

Внимание! Время в таблицах - всемирное. Для получения местного времени необходимо прибавить поправку, которая в Arviat Airport равна -5 ч.

Смотрите также архив погоды в соседних городах и на ближайших метеорологических станциях:

Погода в Arviat Climate (Канада) (1 км)
Погода в Arviat (Канада) (1 км)
Погода в Rankin Inlet (Канада) (218 км)
Погода в Churchill Climate (Канада) (264 км)
Погода в Tadoule Lake (Канада) (361 км)
Погода в Baker Lake Airport (Канада) (371 км)
Погода в Baker Lake Climate (Канада) (372 км)
Погода в Dubawnt Lake (Канада) (462 км)
Погода в Gillam (Канада) (528 км)
Погода в Back River MAPS (Канада) (568 км)

Пояснения к столбцам:

Ветер - указаны скорость ветра в м/с - средняя за 10 мин, порывы в срок и между сроками (в фигурных скобках) и направление, откуда дует ветер: С - северный, СВ - северо-восточный, В - восточный, ЮВ - юго-восточный, Ю - южный, ЮЗ - юго-западный, З - западный, СЗ - северо-западный.
Видимость - горизонтальная дальность видимости в метрах или километрах. При видимости от 1 до 10 км при отсутствии осадков обычно наблюдается дымка, при ухудшении видимости до 1 км и менее - туман. В сухую погоду видимость может ухудшаться дымом, пылью или мглою.
Явления - указаны атмосферные явления, наблюдавшиеся в срок или в последний час перед сроком; фигурными скобками обозначены явления, наблюдавшиеся между сроками (за 1-3 часа до срока); квадратными скобками обозначены град или гололедные отложения с указанием их диаметра в мм.
Облачность - указаны через наклонную черту общая и нижняя облачность в баллах и высота нижней границы облаков в метрах; квадратными скобками обозначены формы облаков: Ci - перистые, Cs - перисто-слоистые, Cc - перисто-кучевые, Ac - высококучевые, As - высокослоистые, Sc - слоисто-кучевые, Ns - слоисто-дождевые, Cu - кучевые, Cb - кучево-дождевые. Подробнее классификацию облаков см. в Атласе облаков (PDF).
T - Температура воздуха - температура, измеренная на высоте 2 м над землей.
Td - Температура точки росы - температура, при понижении до которой содержащийся в воздухе водяной пар достигнет насыщения.
f - Относительная влажность воздуха - влажноcть воздуха, измеренная на высоте 2 м над землей.
Te - Эффективная температура - температура, которую ощущает одетый по сезону человек в тени. Характеристика душности погоды. При расчете учитывается влияние влажности воздуха и скорости ветра на теплоощущения человека.
Tes - Эффективная температура на солнце - температура, которую ощущает человек, с поправкой на солнечный нагрев. Характеристика знойности погоды. Зависит от высоты солнца над горизонтом, облачности и скорости ветра. Ночью, в пасмурную погоду, а также при ветре 12 м/с и более поправка равна нулю.
P - Атмосферное давление - приведенное к уровню моря атмосферное давление.
Po - Атмосферное давление - измеренное на уровне метеостанции атмосферное давление.
Tmin - Минимальная температура - минимум температуры воздуха на высоте 2 м над землей.
Tmax - Максимальная температура - максимум температуры воздуха на высоте 2 м над землей.
R - Количество осадков - Количество выпавших осадков за период времени, мм. При наведении курсора мыши на число - период времени, за который выпало указанное количество осадков.
R24 - Количество осадков - Количество выпавших осадков за 24 часа, мм.
S - Снежный покров - Высота снежного покрова, см. При наведении курсора мыши на число - состояние снежного покрова и степень покрытия местности в баллах.